Flag for France Weather past 2 weeks in Dijon, France

Now
70 °F

Clear.


Feels Like: 70 °F
Forecast: 62 / 77 °F
Wind: 5 mph from Southeast

Location: Dijon Airport

Current Time: Sep 17, 2014 at 11:54:27 AM

Latest Report: Sep 17, 2014 at 11:30 AM


Visibility: N/A

Pressure: 29.86 "Hg

Humidity: 73%

Dew point: 61 °F

Location of DijonLocation

Historic Weather in Dijon — Graph

°F

Dijon temperature yesterday

Maximum temperature yesterday: 81 °F (at 3:30 PM)
Minimum temperature yesterday: 54 °F (at 5:30 AM)
Average temperature yesterday: 65 °F

Past Weeks' High & Low Weather Summary

 TemperatureHumidityPressure
High84 °F (Sep 8, 4:30 PM)100% (Sep 4, 5:30 AM)30.15 "Hg (Sep 4, 5:30 AM)
Low50 °F (Sep 12, 6:30 AM)37% (Sep 7, 5:30 PM)29.86 "Hg (Sep 16, 7:30 PM)
Average65 °F71%30.00 "Hg
* Reported Sep 2 10:00 AM — Sep 17 10:30 AM, Dijon, Weather by CustomWeather, © 2014

Note: Actual official high and low records may vary slightly from our data, if they occured in-between our weather recording intervals... More about our weather records

Advertising

Dijon weather history for previous 24 hours

 ConditionsComfort  
Time TempWeatherWind HumidityBarometerVisibility
10:30 AM
Sep 17
66 °FClear.2 mph78%29.89 "HgN/A
10:00 AM66 °FClear.1 mph78%29.89 "HgN/A
9:30 AM63 °FClear.3 mph83%29.89 "HgN/A
9:00 AM61 °FClear.5 mph88%29.86 "HgN/A
8:30 AM61 °FClear.5 mph88%29.86 "HgN/A
8:00 AM59 °FClear.3 mph88%29.86 "HgN/A
7:30 AM59 °FClear.3 mph88%29.86 "HgN/A
7:00 AM59 °FClear.3 mph88%29.86 "HgN/A
6:30 AM57 °FClear.3 mph94%29.86 "HgN/A
6:00 AM57 °FClear.2 mph88%29.86 "HgN/A
5:30 AM59 °FClear.5 mph88%29.86 "HgN/A
5:00 AM59 °FClear.2 mph82%29.86 "HgN/A
4:30 AM59 °FClear.No wind88%29.89 "HgN/A
4:00 AM57 °FClear.3 mph88%29.89 "HgN/A
3:30 AM57 °FClear.2 mph88%29.89 "HgN/A
3:00 AM57 °FClear.2 mph88%29.89 "HgN/A
2:30 AM59 °FClear.No wind82%29.89 "HgN/A
2:00 AM61 °FClear.3 mph83%29.89 "HgN/A
1:30 AM61 °FClear.3 mph83%29.89 "HgN/A
1:00 AM63 °FClear.3 mph77%29.89 "HgN/A
12:30 AM61 °FClear.3 mph83%29.89 "HgN/A
12:00 AM63 °FClear.3 mph77%29.89 "HgN/A
11:30 PM
Sep 16
64 °FClear.3 mph73%29.89 "HgN/A
11:00 PM64 °FClear.2 mph73%29.89 "HgN/A
10:30 PM64 °FClear.2 mph78%29.89 "HgN/A
10:00 PM64 °FClear.2 mph78%29.89 "HgN/A
9:30 PM66 °FClear.2 mph68%29.89 "HgN/A
9:00 PM66 °FClear.3 mph68%29.89 "HgN/A
8:30 PM70 °FClear.5 mph60%29.89 "HgN/A
8:00 PM72 °FClear.6 mph57%29.89 "HgN/A
7:30 PM73 °FClear.7 mph53%29.86 "HgN/A
7:00 PM75 °FClear.9 mph54%29.89 "HgN/A
6:30 PM77 °FClear.7 mph51%29.89 "HgN/A
6:00 PM79 °FClear.6 mph45%29.89 "HgN/A
5:30 PM81 °FClear.6 mph45%29.89 "HgN/A
5:00 PM81 °FClear.6 mph45%29.89 "HgN/A
4:30 PM81 °FClear.3 mph42%29.89 "HgN/A
4:00 PM79 °FPassing clouds.3 mph42%29.89 "HgN/A
3:30 PM81 °FPassing clouds.5 mph45%29.92 "HgN/A
3:00 PM79 °FClear.5 mph48%29.92 "HgN/A
2:30 PM79 °FClear.5 mph48%29.92 "HgN/A
2:04 PM77 °FWarm.7 mph54%29.92 "HgN/A
12:00 PM70 °FClear.3 mph73%29.98 "HgN/A
11:30 AM68 °FClear.2 mph78%29.98 "HgN/A
11:00 AM64 °FPartly sunny.2 mph83%29.98 "Hg6 mi
Weather by CustomWeather, © 2014

See weather overviewHow to use our weather pages